Regional Weather Roundup
Issued by NWS State College, PA

Home | Current Version | Previous Version | Text Only | Print | Product List | Glossary On
Versions: 1 2 3 4 5 6 7 8 9 10 11 12 13 14 15 16 17 18 19 20 21 22 23 24 25 26 27 28 29 30 31 32 33 34 35 36 37 38 39 40 41 42 43 44 45 46 47 48 49 50
000
ASUS41 KCTP 260510
RWRCTP

REGIONAL WEATHER ROUNDUP
NATIONAL WEATHER SERVICE STATE COLLEGE PA
100 AM EDT SAT JUL 26 2014

Note: "fair" indicates few or no clouds below 12,000 feet with no
significant weather and/or obstructions to visibility.

* = STATION THAT DOES NOT REPORT PRECIPITATION /E.G. RAIN...SNOW...ETC/
    THUNDER OR FOG.

PAZ002>004-007>009-013>016-020>023-029>032-260600-
WESTERN PENNSYLVANIA

CITY           SKY/WX    TMP DP  RH WIND       PRES   REMARKS
ERIE           CLOUDY    64  55  72 S5        29.99S
MEADVILLE      CLOUDY    62  55  77 CALM      30.02F
FRANKLIN*      CLOUDY    61  54  77 CALM      30.04S
NEW CASTLE     LGT RAIN  62  61  97 CALM      30.04R
BEAVER COUNTY  NOT AVBL
BUTLER*        CLOUDY    61  55  82 CALM      30.04S
PITTSBURGH INT CLOUDY    68  57  68 CALM      30.03S
PITTSBURGH     LGT RAIN  69  54  58 W3        30.02S
INDIANA*       CLOUDY    59  55  88 CALM      30.07F
LATROBE        CLEAR     63  61  94 CALM      30.04S
WASHINGTON CO* CLOUDY    61  57  88 CALM      30.04S
$$

PAZ004>006-010>012-017>019-024>028-033>037-041-042-045-046-049>053-260600-
CENTRAL PENNSYLVANIA

CITY           SKY/WX    TMP DP  RH WIND       PRES   REMARKS
BRADFORD       CLEAR     51  49  92 CALM      30.04S
DUBOIS         PTCLDY    62  51  67 CALM      30.04R
CLEARFIELD     PTCLDY    55  52  89 N5        30.05R
JOHNSTOWN      CLOUDY    62  52  69 SW6       30.07R
ALTOONA          N/A    N/A N/A N/A MISG      30.05R
STATE COLLEGE  PTCLDY    61  55  82 CALM      30.03S
WILLIAMSPORT   MOCLDY    60  54  80 CALM      30.01R
SELINSGROVE    MOCLDY    58  56  93 CALM      30.02R
FT INDIANTOWN  MOCLDY    57  56  97 N2        30.03R
CAPITAL CITY   MOCLDY    62  55  77 SW5       30.01S
HARRISBURG     MOCLDY    65  56  72 SE5       30.01R
YORK           PTCLDY    64  56  75 CALM      30.02R
$$

PAZ038>040-043-044-047-048-054-055-060>062-067>071-260600-
EASTERN PENNSYLVANIA

CITY           SKY/WX    TMP DP  RH WIND       PRES   REMARKS
SCRANTON       MOCLDY    61  52  72 CALM      30.02S
MOUNT POCONO   PTCLDY    56  52  86 CALM      30.05S
ALLENTOWN      PTCLDY    61  56  83 NW3       30.01S
QUAKERTOWN*    PTCLDY    59  57  94 CALM      30.03S
READING        MOCLDY    64  56  75 CALM      30.01R
LANCASTER      MOCLDY    63  57  81 CALM      30.02R
COATESVILLE    MOCLDY    66  54  63 W3        30.04R
POTTSTOWN      PTCLDY    61  55  81 CALM      30.03S
BLUE BELL      CLEAR     61  57  88 CALM      30.01S
DOYLESTOWN     CLEAR     61  57  87 CALM      30.01S
WILLOW GROVE   NOT AVBL
NORTH PHILA    CLEAR     68  56  65 CALM      30.03R
PHILADELPHIA   MOCLDY    70  57  63 S6        30.02R
$$


USA.gov is the U.S. government's official web portal to all federal, state and local government web resources and services.